| time (UTC) | temp F | wind direction | speed knots | gust knots | rain 1hr in | rain 24hr in | rain mn in | humidity % | barometer mb |
| 20260503053053 | 54 | 38 | 1.7 | 3.5 | 0.00 | 0.00 | 0.00 | 76 | 1018.5 |
| 20260503051554 | 53 | 39 | 1.7 | 4.3 | 0.00 | 0.00 | 0.00 | 77 | 1018.4 |
| 20260503050051 | 53 | 38 | 3.5 | 5.2 | 0.00 | 0.00 | 0.00 | 78 | 1018.4 |
| 20260503044546 | 52 | 46 | 2.6 | 4.3 | 0.00 | 0.00 | 0.00 | 78 | 1018.4 |
| 20260503043047 | 52 | 35 | 2.6 | 4.3 | 0.00 | 0.00 | 0.00 | 78 | 1018.5 |
| 20260503041541 | 51 | 38 | 2.6 | 3.5 | 0.00 | 0.00 | 0.00 | 78 | 1018.5 |
| 20260503040047 | 52 | 30 | 1.7 | 3.5 | 0.00 | 0.00 | 0.00 | 78 | 1018.4 |
| 20260503034554 | 52 | 42 | 1.7 | 3.5 | 0.00 | 0.00 | 0.00 | 78 | 1018.4 |
| 20260503033043 | 52 | 36 | 1.7 | 3.5 | 0.00 | 0.00 | 0.00 | 78 | 1018.4 |
| 20260503031541 | 52 | 33 | 2.6 | 4.3 | 0.00 | 0.00 | 0.00 | 78 | 1018.5 |
| 20260503030047 | 52 | 34 | 1.7 | 3.5 | 0.00 | 0.00 | 0.00 | 78 | 1018.5 |
| 20260503024534 | 52 | 40 | 1.7 | 3.5 | 0.00 | 0.00 | 0.00 | 77 | 1018.6 |
| 20260503023033 | 52 | 29 | 2.6 | 5.2 | 0.00 | 0.00 | 0.00 | 77 | 1018.5 |
| 20260503021539 | 53 | 42 | 2.6 | 5.2 | 0.00 | 0.00 | 0.00 | 76 | 1018.7 |
| 20260503020029 | 53 | 34 | 0.0 | 2.6 | 0.00 | 0.00 | 0.00 | 76 | 1018.9 |
| 20260503014527 | 53 | 40 | 2.6 | 4.3 | 0.00 | 0.00 | 0.00 | 75 | 1018.8 |
| 20260503013026 | 54 | 355 | 1.7 | 3.5 | 0.00 | 0.00 | 0.00 | 75 | 1018.8 |
| 20260503011525 | 54 | 26 | 3.5 | 7.8 | 0.00 | 0.00 | 0.00 | 75 | 1018.8 |
| 20260503010023 | 54 | 38 | 3.5 | 5.2 | 0.00 | 0.00 | 0.00 | 75 | 1019.0 |
| 20260503004522 | 54 | 39 | 4.3 | 7.8 | 0.00 | 0.00 | 0.00 | 75 | 1019.1 |
| 20260503003021 | 54 | 43 | 2.6 | 5.2 | 0.00 | 0.00 | 0.00 | 75 | 1019.3 |
| 20260503001517 | 54 | 46 | 3.5 | 6.1 | 0.00 | 0.00 | 0.00 | 75 | 1019.4 |
| 20260503000014 | 54 | 48 | 2.6 | 4.3 | 0.00 | 0.00 | 0.00 | 74 | 1019.6 |
| 20260502234511 | 54 | 355 | 2.6 | 7.0 | 0.00 | 0.00 | 0.00 | 74 | 1019.7 |
| 20260502233010 | 54 | 28 | 1.7 | 4.3 | 0.00 | 0.00 | 0.00 | 74 | 1019.9 |
| 20260502231605 | 54 | 44 | 2.6 | 5.2 | 0.00 | 0.00 | 0.00 | 73 | 1020.0 |
| 20260502230054 | 55 | 344 | 2.6 | 3.5 | 0.00 | 0.00 | 0.00 | 73 | 1020.0 |
| 20260502224552 | 55 | 348 | 1.7 | 4.3 | 0.00 | 0.00 | 0.00 | 72 | 1020.0 |
| 20260502223051 | 55 | 35 | 2.6 | 4.3 | 0.00 | 0.00 | 0.00 | 72 | 1020.1 |
| 20260502221550 | 55 | 351 | 1.7 | 3.5 | 0.00 | 0.00 | 0.00 | 72 | 1020.1 |
| 20260502220052 | 55 | 56 | 1.7 | 3.5 | 0.00 | 0.00 | 0.00 | 71 | 1020.1 |
| 20260502214547 | 56 | 48 | 1.7 | 3.5 | 0.00 | 0.00 | 0.00 | 70 | 1020.0 |
| 20260502213047 | 56 | 39 | 1.7 | 3.5 | 0.00 | 0.00 | 0.00 | 70 | 1020.0 |
| 20260502211549 | 57 | 13 | 1.7 | 3.5 | 0.00 | 0.00 | 0.00 | 69 | 1020.0 |
| 20260502210055 | 57 | 47 | 1.7 | 4.3 | 0.00 | 0.00 | 0.00 | 68 | 1020.1 |
| 20260502204545 | 58 | 35 | 1.7 | 3.5 | 0.00 | 0.00 | 0.00 | 68 | 1020.1 |
| 20260502203049 | 59 | 24 | 0.9 | 2.6 | 0.00 | 0.00 | 0.00 | 66 | 1020.1 |
| 20260502201545 | 59 | 48 | 0.9 | 2.6 | 0.00 | 0.00 | 0.00 | 65 | 1020.2 |
| 20260502200044 | 60 | 48 | 1.7 | 3.5 | 0.00 | 0.00 | 0.00 | 64 | 1020.1 |
| 20260502194543 | 61 | 48 | 1.7 | 3.5 | 0.00 | 0.00 | 0.00 | 62 | 1019.9 |
| 20260502193043 | 62 | 39 | 0.9 | 1.7 | 0.00 | 0.00 | 0.00 | 60 | 1019.8 |
| 20260502191542 | 63 | 35 | 2.6 | 3.5 | 0.00 | 0.00 | 0.00 | 57 | 1019.8 |
| 20260502190042 | 65 | 35 | 1.7 | 2.6 | 0.00 | 0.00 | 0.00 | 53 | 1019.7 |
| 20260502184549 | 67 | 223 | 0.0 | 0.9 | 0.00 | 0.00 | 0.00 | 48 | 1019.6 |
| 20260502183042 | 68 | 223 | 0.0 | 0.9 | 0.00 | 0.00 | 0.00 | 46 | 1019.6 |
| 20260502181539 | 70 | 223 | 0.0 | 0.0 | 0.00 | 0.00 | 0.00 | 45 | 1019.6 |
| 20260502163034 | 73 | 174 | 0.9 | 6.1 | 0.00 | 0.00 | 0.00 | 38 | 1019.6 |
| 20260502161531 | 73 | 207 | 3.5 | 7.8 | 0.00 | 0.00 | 0.00 | 38 | 1019.8 |
| 20260502151525 | 73 | 255 | 1.7 | 7.0 | 0.00 | 0.00 | 0.00 | 39 | 1020.3 |
| 20260502123105 | 70 | 115 | 3.5 | 8.7 | 0.00 | 0.00 | 0.00 | 43 | 1022.6 |
| 20260502121604 | 70 | 140 | 2.6 | 8.7 | 0.00 | 0.00 | 0.00 | 42 | 1022.8 |
| 20260502114552 | 70 | 194 | 4.3 | 9.6 | 0.00 | 0.00 | 0.00 | 44 | 1023.2 |
| 20260502113054 | 69 | 241 | 4.3 | 7.8 | 0.00 | 0.00 | 0.00 | 44 | 1023.4 |
| 20260502111555 | 69 | 327 | 1.7 | 7.0 | 0.00 | 0.00 | 0.00 | 44 | 1023.7 |
| 20260502110049 | 69 | 123 | 2.6 | 7.8 | 0.00 | 0.00 | 0.00 | 44 | 1023.9 |
| 20260502104546 | 69 | 256 | 4.3 | 8.7 | 0.00 | 0.00 | 0.00 | 43 | 1024.2 |
| 20260502103051 | 67 | 134 | 0.9 | 8.7 | 0.00 | 0.00 | 0.00 | 47 | 1024.5 |
| 20260502101600 | 67 | 91 | 0.9 | 6.1 | 0.00 | 0.00 | 0.00 | 46 | 1024.6 |
| 20260502071508 | 62 | 192 | 1.7 | 2.6 | 0.00 | 0.00 | 0.00 | 55 | 1025.7 |
| 20260502070011 | 62 | 98 | 0.9 | 2.6 | 0.00 | 0.00 | 0.00 | 57 | 1025.9 |
| 20260502064506 | 61 | 48 | 1.7 | 3.5 | 0.00 | 0.00 | 0.00 | 61 | 1025.9 |
| 20260502063105 | 60 | 57 | 0.0 | 1.7 | 0.00 | 0.00 | 0.00 | 66 | 1026.0 |
| 20260502061554 | 58 | 40 | 1.7 | 3.5 | 0.00 | 0.00 | 0.00 | 69 | 1025.8 |
| 20260502054548 | 54 | 38 | 1.7 | 4.3 | 0.00 | 0.00 | 0.00 | 75 | 1025.9 |